KLM38YS EHAM-EGLL

Flight info

Callsign KLM38YS
Flight time 0h 43m
Altitude 24000
Route IDRID L980 LOGAN
Aircraft A320/M-SDE3FGHIRWY/LB1

Departure

Time 2026-05-07 12:14
Airport Amsterdam Airport Schiphol (EHAM)

Arrival

Time 2026-05-07 12:57
Airport London Heathrow Airport (EGLL)
Time Latitude Longitude Altitude Speed Heading
2026-05-07 11:50 52.31034 4.76601 -3 ft 0 kts 304°
2026-05-07 11:59 52.31033 4.76601 -3 ft 1 kts 304°
2026-05-07 12:00 52.31020 4.76635 -3 ft 4 kts 301°
2026-05-07 12:00 52.31007 4.76672 -3 ft 4 kts 299°
2026-05-07 12:00 52.30993 4.76710 -3 ft 4 kts 308°
2026-05-07 12:00 52.30977 4.76732 -3 ft 3 kts 23°
2026-05-07 12:01 52.30974 4.76731 -3 ft 0 kts 31°
2026-05-07 12:06 52.30994 4.76757 -3 ft 10 kts 43°
2026-05-07 12:06 52.31084 4.76867 -3 ft 19 kts 33°
2026-05-07 12:06 52.31199 4.76990 -3 ft 21 kts 33°
2026-05-07 12:07 52.31322 4.77124 -3 ft 22 kts 33°
2026-05-07 12:07 52.31379 4.77181 -3 ft 9 kts 19°
2026-05-07 12:07 52.31473 4.77199 -3 ft 19 kts
2026-05-07 12:07 52.31578 4.77126 -3 ft 14 kts 275°
2026-05-07 12:08 52.31568 4.76945 -3 ft 20 kts 266°
2026-05-07 12:08 52.31560 4.76693 -3 ft 23 kts 267°
2026-05-07 12:08 52.31553 4.76422 -3 ft 25 kts 267°
2026-05-07 12:08 52.31541 4.76132 -3 ft 26 kts 265°
2026-05-07 12:09 52.31532 4.75825 -3 ft 26 kts 268°
2026-05-07 12:09 52.31523 4.75521 -3 ft 28 kts 264°
2026-05-07 12:09 52.31506 4.75196 -3 ft 29 kts 266°
2026-05-07 12:09 52.31496 4.74885 -3 ft 26 kts 267°
2026-05-07 12:10 52.31486 4.74583 -3 ft 27 kts 266°
2026-05-07 12:10 52.31475 4.74266 -3 ft 28 kts 264°
2026-05-07 12:10 52.31359 4.74134 -3 ft 21 kts 182°
2026-05-07 12:10 52.31205 4.74125 -3 ft 23 kts 182°
2026-05-07 12:11 52.31039 4.74115 -3 ft 25 kts 185°
2026-05-07 12:11 52.30862 4.74088 -3 ft 27 kts 185°
2026-05-07 12:11 52.30672 4.74071 -3 ft 28 kts 183°
2026-05-07 12:11 52.30471 4.74057 -3 ft 30 kts 181°
2026-05-07 12:12 52.30311 4.74021 -3 ft 24 kts 205°
2026-05-07 12:12 52.30192 4.73837 -3 ft 23 kts 264°
2026-05-07 12:12 52.30245 4.73739 -4 ft 0 kts
2026-05-07 12:13 52.30388 4.73753 -4 ft 57 kts
2026-05-07 12:14 52.30767 4.73786 -1 ft 103 kts
2026-05-07 12:14 52.31681 4.73866 3 ft 157 kts
2026-05-07 12:14 52.32760 4.73875 660 ft 155 kts 358°
2026-05-07 12:14 52.33834 4.73572 1393 ft 164 kts 346°
2026-05-07 12:15 52.35004 4.73025 1873 ft 186 kts 344°
2026-05-07 12:15 52.36302 4.72289 2267 ft 210 kts 332°
2026-05-07 12:15 52.37366 4.70484 2703 ft 238 kts 294°
2026-05-07 12:15 52.37537 4.67703 3319 ft 259 kts 257°
2026-05-07 12:16 52.36916 4.64901 4252 ft 264 kts 245°
2026-05-07 12:16 52.36079 4.62222 5259 ft 267 kts 241°
2026-05-07 12:16 52.35174 4.59587 6243 ft 269 kts 240°
2026-05-07 12:16 52.34247 4.56916 7179 ft 272 kts 240°
2026-05-07 12:17 52.33324 4.54195 8083 ft 275 kts 241°
2026-05-07 12:17 52.32408 4.51426 8988 ft 279 kts 242°
2026-05-07 12:17 52.31496 4.48611 9897 ft 282 kts 242°
2026-05-07 12:17 52.30568 4.45707 10435 ft 299 kts 242°
2026-05-07 12:18 52.29576 4.42573 10718 ft 322 kts 242°
2026-05-07 12:18 52.28514 4.39211 10935 ft 345 kts 242°
2026-05-07 12:18 52.27391 4.35661 11094 ft 368 kts 243°
2026-05-07 12:18 52.26187 4.31862 11389 ft 383 kts 242°
2026-05-07 12:19 52.24949 4.27968 11981 ft 389 kts 242°
2026-05-07 12:19 52.23695 4.24023 12626 ft 394 kts 243°
2026-05-07 12:19 52.22428 4.20039 13293 ft 398 kts 243°
2026-05-07 12:19 52.20781 4.14869 14114 ft 403 kts 243°
2026-05-07 12:20 52.19483 4.10810 14716 ft 405 kts 243°
2026-05-07 12:20 52.18189 4.06770 15306 ft 408 kts 243°
2026-05-07 12:20 52.16851 4.02600 15884 ft 411 kts 243°
2026-05-07 12:20 52.15535 3.98516 16438 ft 414 kts 242°
2026-05-07 12:21 52.14191 3.94355 16981 ft 417 kts 242°
2026-05-07 12:21 52.13277 3.91528 17335 ft 419 kts 242°
2026-05-07 12:21 52.11472 3.85953 18029 ft 422 kts 242°
2026-05-07 12:21 52.10545 3.83093 18368 ft 424 kts 242°
2026-05-07 12:22 52.09166 3.78841 18806 ft 426 kts 242°
2026-05-07 12:22 52.07796 3.74627 19229 ft 428 kts 242°
2026-05-07 12:22 52.06396 3.70338 19637 ft 431 kts 242°
2026-05-07 12:22 52.04988 3.66028 20035 ft 433 kts 242°
2026-05-07 12:23 52.03572 3.61694 20409 ft 436 kts 242°
2026-05-07 12:23 52.02148 3.57344 20775 ft 438 kts 242°
2026-05-07 12:23 52.00715 3.52970 21132 ft 440 kts 242°
2026-05-07 12:23 51.99179 3.48662 21473 ft 442 kts 236°
2026-05-07 12:24 51.97375 3.44612 21812 ft 444 kts 234°
2026-05-07 12:24 51.95544 3.40565 22154 ft 446 kts 234°
2026-05-07 12:24 51.93700 3.36500 22488 ft 448 kts 233°
2026-05-07 12:24 51.91844 3.32417 22806 ft 450 kts 233°
2026-05-07 12:25 51.89980 3.28332 23114 ft 452 kts 233°
2026-05-07 12:25 51.88114 3.24225 23413 ft 454 kts 235°
2026-05-07 12:25 51.86483 3.19848 23689 ft 456 kts 243°
2026-05-07 12:25 51.85278 3.15110 23922 ft 457 kts 252°
2026-05-07 12:26 51.84509 3.10110 24065 ft 459 kts 260°
2026-05-07 12:26 51.84126 3.04957 24098 ft 464 kts 264°
2026-05-07 12:26 51.83793 2.99760 24099 ft 466 kts 263°
2026-05-07 12:26 51.83679 2.97997 24101 ft 466 kts 263°
2026-05-07 12:28 51.83321 2.92489 24098 ft 466 kts 263°
2026-05-07 12:28 51.82978 2.87336 24097 ft 466 kts 263°
2026-05-07 12:28 51.82631 2.82132 24095 ft 466 kts 263°
2026-05-07 12:28 51.82283 2.76923 24093 ft 466 kts 263°
2026-05-07 12:29 51.81931 2.71727 24090 ft 465 kts 263°
2026-05-07 12:29 51.81577 2.66531 24088 ft 465 kts 263°
2026-05-07 12:29 51.81221 2.61336 24088 ft 465 kts 263°
2026-05-07 12:29 51.80863 2.56146 24087 ft 465 kts 263°
2026-05-07 12:30 51.80501 2.50950 24086 ft 465 kts 263°
2026-05-07 12:30 51.80135 2.45755 24084 ft 465 kts 263°
2026-05-07 12:30 51.79782 2.40761 24087 ft 465 kts 263°
2026-05-07 12:30 51.79413 2.35565 24081 ft 465 kts 263°
2026-05-07 12:31 51.79041 2.30375 24080 ft 465 kts 263°
2026-05-07 12:31 51.78667 2.25183 24079 ft 465 kts 263°
2026-05-07 12:31 51.78297 2.20015 24080 ft 465 kts 263°
2026-05-07 12:31 51.77961 2.14820 24085 ft 465 kts 264°
2026-05-07 12:32 51.77658 2.09622 24084 ft 465 kts 264°
2026-05-07 12:32 51.77371 2.04420 24077 ft 465 kts 264°
2026-05-07 12:32 51.77090 1.99291 24077 ft 465 kts 264°
2026-05-07 12:32 51.76797 1.94092 24079 ft 465 kts 264°
2026-05-07 12:33 51.76177 1.83700 24077 ft 465 kts 264°
2026-05-07 12:33 51.75886 1.78984 24081 ft 465 kts 263°
2026-05-07 12:33 51.75559 1.73787 24082 ft 465 kts 263°
2026-05-07 12:34 51.75230 1.68593 24084 ft 466 kts 263°
2026-05-07 12:34 51.74900 1.63393 24086 ft 466 kts 263°
2026-05-07 12:34 51.74571 1.58198 24089 ft 466 kts 263°
2026-05-07 12:34 51.74237 1.52970 24084 ft 466 kts 263°
2026-05-07 12:35 51.73902 1.47772 23852 ft 465 kts 263°
2026-05-07 12:35 51.73567 1.42595 23620 ft 463 kts 263°
2026-05-07 12:35 51.73234 1.37432 23323 ft 462 kts 263°
2026-05-07 12:35 51.72903 1.32309 22337 ft 457 kts 263°
2026-05-07 12:36 51.72572 1.27249 21473 ft 450 kts 263°
2026-05-07 12:36 51.72242 1.22265 20604 ft 444 kts 263°
2026-05-07 12:36 51.71913 1.17354 19780 ft 439 kts 263°
2026-05-07 12:36 51.71587 1.12549 18972 ft 434 kts 263°
2026-05-07 12:37 51.71259 1.07732 18142 ft 431 kts 263°
2026-05-07 12:37 51.70931 1.02955 17327 ft 426 kts 263°
2026-05-07 12:37 51.70604 0.98242 16577 ft 420 kts 263°
2026-05-07 12:37 51.70283 0.93587 15825 ft 416 kts 263°
2026-05-07 12:38 51.69965 0.88934 14715 ft 418 kts 263°
2026-05-07 12:38 51.69649 0.84367 13998 ft 398 kts 263°
2026-05-07 12:38 51.69352 0.80103 13750 ft 368 kts 263°
2026-05-07 12:38 51.69078 0.76155 13129 ft 348 kts 263°
2026-05-07 12:39 51.68864 0.72229 12068 ft 348 kts 264°
2026-05-07 12:39 51.68612 0.68509 11927 ft 321 kts 263°
2026-05-07 12:39 51.68349 0.65071 11710 ft 300 kts 262°
2026-05-07 12:39 51.68089 0.61762 11391 ft 295 kts 262°
2026-05-07 12:40 51.67835 0.58500 11073 ft 292 kts 262°
2026-05-07 12:40 51.67589 0.55262 10722 ft 290 kts 262°
2026-05-07 12:40 51.67348 0.52040 10384 ft 289 kts 263°
2026-05-07 12:40 51.67110 0.48835 10018 ft 288 kts 263°
2026-05-07 12:41 51.66876 0.45647 9635 ft 286 kts 263°
2026-05-07 12:41 51.66643 0.42478 9257 ft 284 kts 262°
2026-05-07 12:41 51.66411 0.39313 8869 ft 282 kts 262°
2026-05-07 12:41 51.66181 0.36188 8489 ft 280 kts 262°
2026-05-07 12:42 51.65950 0.33095 8135 ft 277 kts 262°
2026-05-07 12:42 51.65719 0.30025 8077 ft 277 kts 262°
2026-05-07 12:42 51.65487 0.26941 8080 ft 278 kts 262°
2026-05-07 12:42 51.65252 0.23848 8078 ft 277 kts 262°
2026-05-07 12:43 51.65027 0.20870 8074 ft 260 kts 262°
2026-05-07 12:43 51.64821 0.18093 8079 ft 248 kts 262°
2026-05-07 12:43 51.64681 0.15169 8083 ft 272 kts 266°
2026-05-07 12:43 51.64592 0.12091 8082 ft 277 kts 266°
2026-05-07 12:44 51.64507 0.08980 8082 ft 278 kts 265°
2026-05-07 12:44 51.64320 0.05878 8083 ft 278 kts 262°
2026-05-07 12:44 51.64077 0.02792 8080 ft 278 kts 261°
2026-05-07 12:44 51.63829 -0.00295 8078 ft 278 kts 261°
2026-05-07 12:45 51.63579 -0.03384 8081 ft 278 kts 261°
2026-05-07 12:45 51.63329 -0.06463 7966 ft 276 kts 261°
2026-05-07 12:45 51.63081 -0.09513 7573 ft 274 kts 261°
2026-05-07 12:45 51.62832 -0.12541 7185 ft 272 kts 261°
2026-05-07 12:46 51.62583 -0.15541 7082 ft 271 kts 261°
2026-05-07 12:46 51.62333 -0.18548 7085 ft 271 kts 261°
2026-05-07 12:46 51.62080 -0.21558 7090 ft 271 kts 261°
2026-05-07 12:46 51.61825 -0.24565 7080 ft 271 kts 261°
2026-05-07 12:47 51.61567 -0.27566 7081 ft 271 kts 261°
2026-05-07 12:47 51.61308 -0.30562 7082 ft 271 kts 261°
2026-05-07 12:47 51.61047 -0.33559 7082 ft 270 kts 261°
2026-05-07 12:47 51.60783 -0.36553 7083 ft 270 kts 261°
2026-05-07 12:48 51.60519 -0.39542 7081 ft 270 kts 261°
2026-05-07 12:48 51.60252 -0.42528 7087 ft 270 kts 261°
2026-05-07 12:48 51.59984 -0.45510 7081 ft 270 kts 261°
2026-05-07 12:48 51.59714 -0.48492 7087 ft 269 kts 261°
2026-05-07 12:49 51.59443 -0.51473 7032 ft 268 kts 261°
2026-05-07 12:49 51.59172 -0.54420 6651 ft 265 kts 261°
2026-05-07 12:49 51.58901 -0.57345 6247 ft 264 kts 261°
2026-05-07 12:49 51.58631 -0.60248 5851 ft 262 kts 261°
2026-05-07 12:50 51.58362 -0.63133 5455 ft 260 kts 261°
2026-05-07 12:50 51.58095 -0.65997 5087 ft 258 kts 261°
2026-05-07 12:50 51.57826 -0.68846 4729 ft 257 kts 261°
2026-05-07 12:50 51.57558 -0.71677 4329 ft 256 kts 261°
2026-05-07 12:51 51.57286 -0.74506 4017 ft 255 kts 261°
2026-05-07 12:51 51.57013 -0.77334 3974 ft 257 kts 261°
2026-05-07 12:51 51.56706 -0.80129 3980 ft 258 kts 252°
2026-05-07 12:51 51.55799 -0.82581 3979 ft 258 kts 224°
2026-05-07 12:52 51.54228 -0.84011 3978 ft 260 kts 194°
2026-05-07 12:52 51.52464 -0.84461 3983 ft 261 kts 187°
2026-05-07 12:52 51.50655 -0.84407 3979 ft 262 kts 166°
2026-05-07 12:52 51.49063 -0.83030 3979 ft 263 kts 137°
2026-05-07 12:53 51.47991 -0.80663 3944 ft 264 kts 114°
2026-05-07 12:53 51.47586 -0.77865 3716 ft 256 kts 91°
2026-05-07 12:53 51.47596 -0.75035 3396 ft 252 kts 89°
2026-05-07 12:53 51.47625 -0.72298 3092 ft 235 kts 89°
2026-05-07 12:54 51.47642 -0.69853 2789 ft 201 kts 89°
2026-05-07 12:54 51.47654 -0.67756 2513 ft 176 kts 90°
2026-05-07 12:54 51.47664 -0.65894 2285 ft 159 kts 89°
2026-05-07 12:54 51.47674 -0.64186 2071 ft 148 kts 89°
2026-05-07 12:55 51.47682 -0.62575 1873 ft 143 kts 89°
2026-05-07 12:55 51.47690 -0.60991 1692 ft 141 kts 89°
2026-05-07 12:55 51.47698 -0.59420 1500 ft 141 kts 89°
2026-05-07 12:55 51.47706 -0.57857 1302 ft 140 kts 89°
2026-05-07 12:56 51.47713 -0.56298 1108 ft 139 kts 89°
2026-05-07 12:56 51.47721 -0.54746 912 ft 139 kts 89°
2026-05-07 12:56 51.47728 -0.53207 719 ft 138 kts 90°
2026-05-07 12:56 51.47735 -0.51681 527 ft 136 kts 91°
2026-05-07 12:57 51.47736 -0.50163 321 ft 135 kts 92°
2026-05-07 12:57 51.47748 -0.48656 127 ft 135 kts 91°
2026-05-07 12:57 51.47751 -0.47242 86 ft 105 kts 89°
2026-05-07 12:57 51.47756 -0.46519 92 ft 42 kts 90°
2026-05-07 12:58 51.47717 -0.46158 87 ft 15 kts 142°
2026-05-07 12:58 51.47644 -0.46078 89 ft 0 kts 146°
2026-05-07 13:00 51.47638 -0.46072 89 ft 4 kts 147°
2026-05-07 13:01 51.47593 -0.46053 87 ft 10 kts 180°
2026-05-07 13:01 51.47531 -0.46111 89 ft 10 kts 220°
2026-05-07 13:01 51.47517 -0.46202 87 ft 8 kts 271°
2026-05-07 13:01 51.47518 -0.46288 87 ft 7 kts 271°
2026-05-07 13:02 51.47518 -0.46367 87 ft 7 kts 270°
2026-05-07 13:02 51.47517 -0.46438 87 ft 6 kts 268°
2026-05-07 13:02 51.47516 -0.46501 87 ft 5 kts 268°
2026-05-07 13:02 51.47514 -0.46596 87 ft 12 kts 268°
2026-05-07 13:03 51.47509 -0.46735 91 ft 12 kts 254°
2026-05-07 13:03 51.47490 -0.46855 88 ft 10 kts 256°
2026-05-07 13:03 51.47440 -0.46896 87 ft 8 kts 173°
2026-05-07 13:03 51.47385 -0.46877 88 ft 8 kts 174°
2026-05-07 13:04 51.47371 -0.46925 88 ft 5 kts 269°
2026-05-07 13:04 51.47371 -0.46973 90 ft 4 kts 269°
2026-05-07 13:04 51.47371 -0.47014 87 ft 3 kts 270°
2026-05-07 13:04 51.47370 -0.47033 90 ft 1 kts 270°